Preview of NWS' New Version of Forecast
This preview is not operational and should not be used for support decisions.

Regional Weather Roundup (RWR)

Issued by Philadelphia/Mt Holly (PHI)

                            
000
ASUS41 KPHI 171512
RWRPHI

REGIONAL WEATHER ROUNDUP
NATIONAL WEATHER SERVICE MOUNT HOLLY NJ
1100 AM EDT TUE SEP 17 2019

NOTE:  "FAIR" INDICATES FEW OR NO CLOUDS BELOW 12,000 FEET WITH NO
SIGNIFICANT WEATHER AND/OR OBSTRUCTIONS TO VISIBILITY.

 * = STATION DOES NOT REPORT PRECIPITATION (E.G. RAIN, SNOW, ETC.) 
        OR FOG.

NJZ015>026-171600-
SOUTHERN NEW JERSEY
  
CITY           SKY/WX    TMP DP  RH WIND       PRES   REMARKS
POMONA         FAIR      74  53  48 NE15G22   30.13S                  
WILDWOOD*      FAIR      74  59  59 NE16G23   30.12S                  
MILLVILLE      FAIR      75  53  46 NE12      30.13S                  
WRIGHTSTOWN    FAIR      74  50  42 NE8       30.15S                  
MOUNT HOLLY    FAIR      73  51  46 MISG      30.15S                  
TRENTON        FAIR      70  50  49 NE10      30.16S                  

$$
NJZ001>014-171600-
NORTHERN NEW JERSEY
  
CITY           SKY/WX    TMP DP  RH WIND       PRES   REMARKS
SUSSEX         FAIR      69  45  41 NE8       30.19R                  
ANDOVER*         N/A     68  51  54 VRB3      30.19S                  
MORRISTOWN     SUNNY     70  52  52 NE8       30.17S                  
NEWARK         FAIR      72  47  40 N12       30.16S                  
TETERBORO      FAIR      71  46  40 VRB7      30.15S                  
CALDWELL       FAIR      72  47  40 NE6       30.17F                  
SOMERVILLE     FAIR      72  47  40 NE7       30.15S                  
ALLAIRE*       FAIR      70  46  42 NE10      30.17R                  
TOMS RIVER*    FAIR      72  52  49 E8        30.16S                  

$$
PAZ043-044-047-054-055-060>062-066>071-171600-
EASTERN PENNSYLVANIA
  
CITY           SKY/WX    TMP DP  RH WIND       PRES   REMARKS
PHILADELPHIA   FAIR      73  49  42 E10       30.15S                  
NORTH PHILA    FAIR      74  50  42 NE12      30.17S                  
BLUE BELL*     FAIR      71  51  49 NE9       30.17S                  
DOYLESTOWN     FAIR      73  50  44 VRB5      30.16S                  
QUAKERTOWN*    SUNNY     70  50  49 NE5       30.18S                  
PERKASIE*      FAIR      68  50  52 NE7       30.18F                  
POTTSTOWN      FAIR      70  53  54 CALM      30.18S                  
LANCASTER      CLOUDY    70  54  56 E8        30.17R                  
COATESVILLE    FAIR      70  54  56 E10G16    30.18S                  
WEST CHESTER   FAIR      72  50  46 E5        30.17S                  
READING        NOT AVBL                                               
ALLENTOWN      FAIR      70  49  47 VRB3      30.18S                  
QN CITY/ALNTWN FAIR      68  52  56 NE5       30.19S                  
MOUNT POCONO   FAIR      65  47  52 NE6       30.20S                  
HAZLETON       FAIR      64  50  59 N5        30.24S                  
LEHIGHTON      FAIR      68  48  49 E3        30.19F                  
WILKES BARRE   FAIR      66  48  52 CALM      30.21S                  

$$
DEZALL-MDZ008-012-015-019-020-171600-
DELAWARE AND EASTERN MARYLAND
  
CITY           SKY/WX    TMP DP  RH WIND       PRES   REMARKS
WILMINGTON     FAIR      75  54  47 NE15      30.15S                  
DOVER          PTSUNNY   74  57  56 NE10      30.17R                  
CHESWOLD       MOSUNNY   72  57  60 E13       30.13S                  
GEORGETOWN     FAIR      76  60  57 E16G25    30.12R                  
EASTON         MOSUNNY   77  63  61 NE9       30.15R                  
STEVENSVILLE   CLOUDY    73  59  60 E9        30.12S                  
ABERDEEN       PTSUNNY   75  55  50 NE13      30.14S                  
PATUXENT       PTSUNNY   73  63  70 E12       30.10R                  
OCEAN CITY     CLOUDY    74  63  68 E15G22    30.10R                  
WALLOPS ISLAND PTSUNNY   74  63  68 NE21      30.09R                  
CAMBRIDGE      PTSUNNY   75  59  57 NE12G17   30.10S                  
SALISBURY      CLOUDY    74  59  59 E10       30.10R                  

$$
PAZ001-021-NYZ056-072-MDZ011-DCZ001-171600-
OTHER NEARBY LOCATIONS
  
CITY           SKY/WX    TMP DP  RH WIND       PRES   REMARKS
HARRISBURG     FAIR      72  52  49 E9        30.16S                  
STATE COLLEGE  MOSUNNY   64  52  63 NE6       30.21                   
WILLIAMSPORT   FAIR      66  48  52 CALM      30.19S                  
BINGHAMTON     FAIR      63  49  60 VRB3      30.22F                  
NEW YORK CITY  FAIR      69  45  41 VRB6      30.19R                  
BALTIMORE      PTSUNNY   76  57  51 E14       30.13R                  
WASHINGTON DC  PTSUNNY   78  66  66 NE12      30.12R                  

$$